Lid_Strength_Index
11 11 11 11 11 10 10 10 9 9 9 7 5 5 4 3 2 3 4 2 1 -1 -1 -2 -2 -2 -1 -1 -1 -0 -1 -0 1 1 0 -0 -0 0 0 1 1 1 1
12 12 12 11 11 11 10 9 9 9 9 6 5 4 4 3 2 3 3 4 2 1 -0 -1 -2 -2 -2 -1 -1 -0 -1 -1 1 1 1 0 -0 0 0 1 1 2 1
12 12 12 12 12 11 10 10 9 9 8 6 5 4 4 3 3 2 3 3 3 2 1 0 -1 -1 -1 -1 -1 -1 -0 -1 0 1 2 0 0 0 1 1 2 3 2
12 13 12 12 12 11 10 10 10 10 8 7 6 6 5 4 3 1 2 2 3 3 3 2 1 -0 1 -0 -1 -1 -1 -1 -0 1 2 0 0 1 1 2 2 3 3
13 13 13 13 12 11 11 10 10 10 9 7 6 6 6 4 2 3 3 3 4 5 5 4 3 3 2 1 -0 -1 -1 -1 2 1 1 0 0 1 1 2 3 3 4
13 14 13 13 12 11 11 10 11 10 8 8 7 6 5 3 2 4 3 3 5 6 6 6 5 5 4 2 2 1 -0 0 2 0 0 0 1 1 2 2 3 4 4
14 14 14 13 12 12 11 11 11 11 9 8 8 7 5 4 5 5 4 6 7 7 7 6 7 7 7 5 4 2 0 -1 -0 -0 0 0 1 2 3 3 4 4 4
14 15 14 13 12 12 11 11 11 11 10 8 10 8 9 6 6 5 5 7 7 8 8 8 8 9 9 10 10 5 2 -0 -0 -0 -0 0 1 2 3 4 4 4 5
15 15 14 13 12 12 12 11 11 11 12 9 8 9 11 11 9 7 8 8 8 8 9 9 9 10 11 13 9 2 2 0 0 0 1 2 3 3 3 4 4 4 5
15 15 14 13 12 12 12 11 11 11 10 11 9 7 7 8 11 12 10 9 9 9 10 10 11 11 14 13 5 5 4 3 2 3 3 3 3 3 3 3 4 5 5
15 15 14 13 13 12 12 11 11 11 9 10 10 8 8 8 8 12 13 12 10 9 9 10 12 13 14 13 7 6 5 4 4 4 4 4 5 5 5 5 5 5 6
15 15 14 13 12 12 12 11 10 10 9 8 8 7 9 10 11 12 13 12 12 11 9 10 12 13 15 14 12 7 6 5 4 5 5 5 5 5 5 5 5 6 7
16 15 14 13 13 12 12 11 10 9 9 8 8 8 8 8 9 10 11 12 13 11 11 10 13 14 15 15 14 10 9 7 6 5 5 4 4 5 5 6 6 7 8
17 15 14 14 13 12 12 11 11 9 9 8 8 8 8 8 9 9 10 11 13 12 11 12 13 13 14 15 15 13 11 9 7 7 6 6 6 7 7 7 8 9 9
17 16 14 14 13 13 12 11 11 10 9 9 8 8 8 8 8 9 9 10 11 14 14 12 13 13 14 14 15 15 12 10 9 8 8 8 7 8 8 8 9 9 9
17 16 15 14 14 13 12 12 11 11 10 9 9 9 8 8 8 9 9 8 9 11 14 11 12 13 13 13 14 14 13 12 11 10 9 9 9 9 9 8 8 8 8
17 16 15 14 14 13 12 12 12 12 11 10 10 10 9 8 8 9 9 8 9 10 12 11 12 12 13 14 14 14 14 12 12 11 10 10 10 10 9 8 8 8 9
18 17 15 15 14 14 12 12 13 12 12 11 11 10 10 8 8 9 9 9 10 9 11 13 12 12 12 13 14 14 14 14 13 11 10 10 10 10 9 9 9 10 10
19 17 15 16 15 14 13 12 13 13 12 12 11 11 10 9 9 9 8 10 10 10 10 11 12 11 12 12 12 13 14 14 14 13 11 11 10 9 9 10 10 11 11
20 19 17 17 16 14 13 12 13 13 12 12 11 11 10 9 9 8 9 9 9 11 11 11 12 12 12 12 12 13 14 14 15 13 13 12 12 11 10 10 11 12 11
20 19 18 17 16 15 13 13 14 13 13 13 12 11 10 9 8 7 8 9 9 10 11 11 12 12 13 13 13 13 15 14 15 14 13 14 14 13 13 11 11 11 11
21 20 19 18 17 16 13 13 14 14 13 13 13 11 10 9 8 7 7 8 9 10 11 12 13 14 14 13 13 13 13 14 15 13 14 15 14 15 14 12 11 11 11
21 20 19 18 17 16 13 13 14 14 14 14 13 12 11 10 8 8 8 8 9 9 9 11 13 13 14 14 13 13 14 14 16 15 14 15 14 16 15 14 12 11 11
20 19 19 18 17 16 13 13 14 14 14 13 13 12 12 10 9 9 9 9 9 10 10 11 12 13 13 13 13 13 14 14 14 14 14 16 15 16 15 15 13 13 12
20 19 18 18 19 17 14 13 14 14 14 14 13 12 11 11 9 9 10 10 11 11 10 9 10 11 12 12 12 12 13 14 15 15 14 15 16 16 15 15 14 13 12
20 18 18 18 19 18 15 14 14 14 15 14 12 12 11 11 10 9 11 11 12 12 12 11 11 11 12 13 13 14 14 14 15 15 15 15 15 16 17 15 14 14 14